Wind_Speed
16 15 15 15 15 15 15 15 14 14 14 13 13 13 13 13 12 12 11 11 10 10 10 9 8 6 2 1 3 4 6 7 5 1 6 11 13 14 12 11 11 11 10 7 6 5 6 6 6 6 7 8 8 8 8 7 7 8 8 6 6 6 5 5 4 5 5 6 9 13 15 19 25 27 28 30 29 26 24 21 20 19 20 19 16 16 15 13
17 17 16 16 16 15 15 15 15 14 14 14 13 13 12 12 12 12 11 11 10 10 11 10 8 6 2 1 3 5 6 6 5 4 8 11 12 12 10 9 10 11 10 8 7 8 9 7 8 10 9 9 9 8 9 9 8 7 7 7 6 4 2 1 2 7 8 7 9 13 15 20 26 28 27 29 28 25 23 22 22 22 23 21 19 19 15 13
19 18 18 17 16 16 16 15 15 14 14 14 13 13 12 12 12 12 11 11 10 10 11 10 8 6 3 2 4 5 6 6 7 7 10 11 10 10 10 9 9 10 10 9 9 11 11 9 11 12 11 11 10 10 10 11 10 8 7 6 7 7 4 4 5 9 9 8 11 14 18 22 25 25 25 27 27 24 23 22 23 25 25 23 22 21 17 17
20 19 19 18 17 16 16 15 15 15 14 14 13 13 12 12 11 11 11 10 10 10 11 11 9 7 3 4 6 6 6 7 8 9 10 10 8 9 10 10 9 9 9 10 11 12 11 11 13 12 12 13 13 13 12 12 11 8 6 5 7 7 5 6 6 9 9 9 13 16 20 22 23 23 24 26 25 23 22 20 22 24 24 23 23 22 20 21
20 20 19 19 18 17 16 15 15 15 14 14 14 13 12 12 11 11 11 10 10 10 12 12 10 7 5 6 6 6 6 6 8 10 10 10 10 9 9 10 9 8 8 9 11 12 11 11 13 13 13 13 14 15 12 11 10 7 5 5 6 7 8 7 5 6 8 11 16 19 20 19 21 22 22 23 20 18 18 19 22 23 21 21 22 22 23 24
21 20 19 19 19 18 17 16 15 15 15 14 14 13 12 12 11 11 11 10 9 10 12 13 11 9 6 8 8 6 5 4 7 10 9 9 11 9 7 9 9 7 7 9 11 10 10 11 12 13 14 15 16 17 14 11 10 8 6 4 4 7 10 9 6 5 6 12 16 17 17 17 19 20 19 19 16 15 17 17 21 23 20 19 20 23 25 26
21 20 20 19 19 18 17 16 15 15 15 14 14 13 12 12 12 11 10 10 9 10 13 13 12 10 8 9 10 7 6 6 7 9 10 10 10 9 7 6 7 6 6 8 10 9 8 8 10 13 14 16 17 18 16 13 11 8 5 4 4 7 12 13 11 7 6 10 13 13 13 15 18 19 18 18 17 17 18 17 21 24 22 20 20 23 24 24
21 21 20 19 19 18 18 17 16 15 15 15 14 13 12 12 12 11 10 10 9 10 13 14 13 12 9 10 12 10 7 6 8 9 9 9 9 9 7 4 5 5 5 6 8 8 8 6 8 12 13 14 16 18 16 13 11 9 6 3 3 5 10 13 14 11 9 10 13 13 13 14 15 16 18 19 18 18 18 19 23 23 23 22 20 24 25 23
21 21 20 19 19 18 18 17 16 15 15 15 14 13 13 12 12 12 11 10 9 10 13 15 15 13 11 11 13 11 8 7 10 11 9 8 8 8 5 3 3 4 3 3 5 6 8 7 5 10 12 12 13 18 16 12 10 10 7 3 1 3 7 10 13 13 12 12 14 13 14 15 15 16 17 17 18 18 18 22 25 24 24 23 21 24 24 21
21 21 20 19 19 18 18 17 16 15 14 14 14 13 13 12 12 12 11 10 10 10 12 15 16 15 13 12 13 13 10 9 12 12 8 6 6 8 7 4 3 3 2 4 5 4 7 8 7 12 14 13 13 17 16 11 9 9 7 5 1 4 5 9 12 10 12 15 14 12 13 16 16 17 17 15 16 17 18 22 25 26 24 22 24 26 23 19
21 21 20 19 19 18 18 17 17 15 14 14 14 13 13 12 12 12 12 11 11 10 12 15 17 16 14 13 13 12 12 11 11 11 9 6 5 8 8 5 3 2 2 5 9 11 13 12 11 11 13 14 15 15 14 11 7 6 6 6 3 3 4 8 11 9 10 15 15 12 14 17 17 17 16 14 14 15 18 20 23 25 23 21 26 27 22 17
20 20 20 20 19 19 18 17 16 16 14 14 14 14 13 12 12 12 12 12 11 11 12 14 17 18 16 15 12 11 13 12 10 9 8 6 5 9 10 6 5 2 2 4 6 10 16 15 8 3 10 14 15 13 11 9 6 7 8 8 5 1 3 5 8 8 9 14 15 14 14 16 16 16 16 16 15 14 19 21 23 24 22 23 28 27 21 17
20 20 20 20 19 19 18 17 17 16 14 13 14 14 13 12 12 12 12 12 12 12 12 13 17 19 18 15 12 13 15 13 11 9 8 8 7 9 13 10 7 5 2 4 3 4 10 9 4 4 9 10 11 10 10 9 8 11 10 9 7 2 2 5 7 8 9 13 16 15 15 16 16 15 16 17 16 15 18 22 25 25 23 26 29 25 21 18
19 20 19 19 19 19 18 18 17 16 15 13 13 14 13 12 12 12 12 12 12 12 12 13 16 18 18 15 13 14 16 16 14 12 10 10 9 9 12 12 9 6 2 4 4 3 6 6 2 5 9 8 7 10 14 15 15 14 11 10 8 5 2 4 8 10 10 11 15 14 13 15 16 15 17 17 16 16 16 21 26 26 25 29 30 26 23 21
17 18 19 19 19 19 18 18 17 16 15 13 13 14 13 12 12 12 12 12 13 13 14 13 14 17 19 15 14 16 19 21 19 15 12 11 11 9 9 11 10 8 3 3 5 4 6 5 2 7 10 10 9 14 17 17 16 13 12 10 6 6 5 3 7 10 9 9 13 13 9 12 16 15 16 17 17 17 17 20 24 27 27 30 31 27 25 23
17 17 17 18 18 18 18 18 17 16 15 14 13 14 13 12 12 12 12 12 13 13 14 13 12 16 18 17 18 19 20 21 17 15 14 13 12 8 7 11 12 10 5 2 6 7 6 6 6 11 14 13 14 18 21 20 17 12 13 12 7 7 7 5 7 10 8 8 12 12 9 11 15 16 17 18 18 19 18 19 22 25 26 28 30 28 26 25
19 17 16 17 18 18 18 18 17 16 15 14 13 13 12 12 13 12 12 12 13 14 14 14 12 14 17 19 21 21 20 18 15 13 12 12 11 9 9 12 12 9 6 5 8 9 9 10 10 13 14 13 16 19 20 21 18 12 9 12 11 9 9 7 8 10 11 12 10 10 11 11 12 16 19 19 19 20 20 19 20 23 23 25 29 29 28 27
20 18 17 16 17 18 17 17 16 15 15 14 12 13 12 12 13 13 13 13 14 15 15 14 13 13 14 17 19 20 19 16 14 13 10 10 11 11 10 11 11 10 9 10 12 12 9 7 7 12 14 13 15 18 21 21 18 14 11 11 13 13 13 10 8 10 12 14 11 10 11 9 11 15 17 20 20 20 20 20 20 21 21 24 28 30 29 28
21 19 17 16 16 17 17 17 16 15 14 13 12 12 12 12 13 14 14 15 15 16 16 14 15 13 12 16 18 18 19 15 14 14 11 11 13 13 11 12 13 11 10 11 12 10 6 5 9 15 18 16 15 18 22 21 19 17 17 19 19 18 15 10 9 10 10 13 13 10 8 8 12 15 17 20 20 19 20 20 20 21 21 23 26 28 27 26
21 19 18 16 16 16 16 16 15 14 13 12 12 11 11 12 13 14 16 17 16 17 17 15 16 15 14 17 20 20 19 19 17 13 10 9 12 13 13 16 17 14 11 9 8 4 3 9 12 15 18 17 16 18 20 19 17 15 18 22 22 19 13 11 11 10 9 10 11 10 7 7 10 13 16 18 19 20 20 21 21 21 21 24 26 26 25 24
20 19 17 16 15 15 16 15 14 13 11 11 11 9 11 12 12 15 18 18 16 18 19 18 18 16 15 17 22 23 21 23 21 17 13 8 10 14 14 18 19 18 14 8 5 5 8 14 14 10 13 15 17 19 20 20 17 16 18 21 19 17 12 11 10 9 9 9 9 11 9 7 8 10 15 17 17 18 19 21 22 21 21 22 24 25 24 22
19 18 16 15 15 14 15 15 13 12 11 10 11 10 12 13 12 15 20 19 15 16 18 19 21 18 17 18 24 26 24 26 23 22 22 15 16 17 15 18 20 19 15 10 11 14 17 21 18 11 10 15 18 20 19 18 18 18 14 11 17 18 12 10 10 7 8 8 8 10 9 8 8 8 11 13 12 12 14 17 20 20 20 21 22 23 23 23
17 17 15 14 14 13 14 14 12 11 11 11 12 12 13 15 14 16 19 18 13 13 16 19 21 19 18 21 27 29 26 26 22 22 25 24 23 19 17 18 18 17 19 21 21 20 21 22 21 17 14 16 20 22 19 18 20 19 10 10 19 19 13 13 15 9 7 7 5 8 8 8 9 10 11 10 9 10 12 14 17 18 17 17 18 20 23 25
15 15 14 14 13 13 13 13 11 11 11 13 14 14 14 15 15 15 16 18 14 9 13 18 19 18 19 24 27 26 24 23 20 21 24 27 26 21 19 19 18 18 20 24 22 22 24 18 14 16 15 15 19 23 22 20 21 19 12 13 21 22 15 12 16 13 8 7 7 10 10 10 13 13 13 13 12 13 13 15 17 17 16 16 16 19 23 26
14 13 13 13 12 12 13 12 11 11 12 14 15 15 14 14 14 15 13 16 16 9 10 16 17 15 19 26 25 23 21 21 21 21 23 25 25 23 21 19 19 20 18 21 21 23 25 19 14 15 15 14 18 23 22 18 20 20 13 9 17 23 17 13 20 18 14 13 14 16 10 9 14 13 13 16 15 14 15 17 17 14 15 17 18 20 23 25
12 12 12 13 12 12 13 12 11 12 13 14 14 13 12 11 12 12 10 12 14 9 10 13 13 11 19 28 28 23 19 20 20 21 22 22 21 21 21 21 22 21 18 17 19 22 23 20 20 22 20 16 19 24 21 15 20 23 17 15 16 24 21 21 23 20 17 15 18 20 8 5 13 13 13 17 16 14 15 15 16 13 13 16 18 18 21 24
11 11 11 12 12 11 13 13 12 12 13 13 11 10 9 8 7 5 6 8 9 4 8 13 11 10 16 26 30 26 20 19 21 21 24 23 21 20 20 24 23 21 22 19 19 22 20 17 19 23 24 22 22 23 21 18 21 21 16 13 8 22 20 20 17 13 13 11 18 22 11 5 11 12 13 17 15 16 17 15 15 14 12 13 15 15 18 21
10 10 11 12 11 11 14 13 12 13 13 11 8 7 8 8 5 2 1 2 2 2 6 11 12 10 11 19 29 31 23 20 23 25 27 27 25 24 22 24 23 19 20 22 24 22 16 15 15 17 22 26 27 25 22 21 23 20 15 9 7 13 16 21 13 9 14 13 19 24 15 5 7 9 13 17 18 18 18 15 14 14 12 13 13 14 16 17
9 10 10 12 11 11 14 14 14 15 12 11 9 9 10 8 6 4 1 1 3 3 5 8 12 11 12 17 26 31 25 20 20 21 26 29 28 27 25 22 21 18 17 22 27 23 17 14 14 15 18 23 24 23 23 24 26 24 17 10 10 12 21 27 14 15 19 12 17 25 21 10 4 9 17 19 21 20 18 13 11 12 11 11 12 14 15 16
9 10 10 11 11 11 14 14 16 15 12 13 11 9 9 7 8 6 1 2 4 4 5 7 10 10 14 19 23 27 26 22 18 13 20 30 28 27 27 22 19 20 19 22 25 25 22 16 15 18 19 20 18 18 18 19 21 21 16 15 14 12 25 32 21 23 18 8 19 25 25 16 4 10 21 19 14 13 16 15 12 13 13 12 12 13 16 17
8 7 8 10 11 11 14 15 17 15 13 14 13 10 10 9 9 5 2 5 5 4 9 10 11 12 12 14 18 22 24 23 22 15 15 25 29 28 28 25 22 21 21 25 26 26 26 22 20 21 21 20 17 16 15 12 13 14 13 17 16 8 16 27 23 21 10 8 22 26 26 21 9 13 20 15 6 8 14 16 15 15 14 13 13 13 14 17
6 4 7 10 10 11 14 16 17 16 14 15 14 12 12 9 9 9 7 7 4 2 7 10 12 14 12 11 14 17 19 20 24 22 15 18 27 31 29 26 24 21 21 26 27 25 27 29 24 19 19 21 19 17 17 14 15 14 15 17 13 5 5 13 12 11 9 13 20 24 27 22 18 20 20 17 13 12 14 14 15 15 14 14 14 15 14 15
3 4 7 9 10 12 15 15 16 17 16 16 15 15 14 7 8 16 13 8 6 5 2 6 11 15 14 15 16 17 18 16 18 23 20 16 22 30 29 25 24 22 21 23 24 22 23 27 25 19 19 23 22 20 19 17 17 18 20 17 8 2 1 4 5 4 11 15 15 24 28 18 21 23 20 20 19 15 14 13 15 14 13 14 15 15 14 13
1 4 7 9 11 13 14 14 15 16 16 17 17 16 16 10 10 16 14 8 1 8 10 9 12 18 17 13 14 17 20 18 15 19 23 18 19 27 30 28 25 22 20 19 19 20 18 19 22 22 21 23 26 26 20 16 18 19 20 15 11 11 4 3 5 4 8 10 7 20 21 12 18 19 16 18 17 17 16 14 16 16 13 12 14 15 14 12
1 3 5 8 11 12 13 14 15 16 16 18 19 19 21 19 14 10 7 6 4 10 10 8 8 21 21 11 12 16 16 18 15 16 22 22 20 25 30 31 29 25 22 19 18 19 19 19 21 22 22 23 27 28 19 14 18 18 17 16 15 17 13 8 9 7 7 4 4 16 15 13 18 17 16 16 16 21 21 17 19 19 17 16 15 16 15 12
1 1 4 7 9 11 12 13 13 15 17 18 20 23 25 22 13 5 4 5 2 11 14 11 1 22 24 15 17 17 12 13 15 15 19 23 22 23 28 30 30 28 25 23 21 18 18 22 21 18 20 25 28 27 19 15 17 16 17 20 16 14 15 13 11 8 5 1 3 13 16 15 14 12 14 14 16 24 25 23 22 21 21 21 18 16 14 12
3 1 2 5 8 10 11 11 12 14 16 18 22 24 24 22 15 7 5 6 3 11 17 18 7 15 24 20 19 20 17 13 15 19 20 21 21 22 28 29 26 26 25 24 25 21 18 20 22 18 17 23 29 26 17 16 18 18 19 21 16 13 17 15 8 4 3 1 2 7 12 14 10 7 10 12 16 24 28 28 26 23 23 22 19 16 13 12
4 2 3 5 8 9 9 10 12 14 15 19 23 23 21 22 20 13 8 6 7 11 15 18 11 1 7 10 9 12 20 19 18 22 23 22 19 19 26 28 24 23 21 23 26 25 22 20 22 20 15 17 26 26 19 16 18 22 22 17 10 8 11 14 9 4 3 2 0 2 8 12 11 11 13 15 18 23 27 29 29 27 24 21 20 17 14 13
5 3 6 9 8 6 7 9 11 13 15 18 21 21 20 20 18 15 12 10 11 12 15 16 10 9 11 6 3 3 12 22 22 22 21 22 21 19 25 27 23 20 19 22 25 25 25 21 20 19 12 9 23 29 26 22 18 22 24 20 16 13 12 13 10 6 6 3 1 2 5 7 10 14 16 20 21 23 27 29 30 28 23 20 21 18 14 13
7 6 8 10 8 4 4 7 9 12 14 16 17 17 17 16 14 12 12 12 11 11 15 17 15 16 16 11 7 8 4 15 21 22 20 19 21 20 23 26 25 22 20 21 23 23 25 23 22 20 11 6 23 27 26 27 23 23 26 24 22 20 18 14 11 10 9 4 3 3 2 2 6 13 18 23 24 23 25 26 27 25 19 17 19 17 13 11
10 9 9 10 8 4 2 5 6 8 11 12 13 13 14 14 12 11 11 11 10 10 12 14 14 14 12 10 10 9 6 8 14 24 24 18 19 20 20 23 25 24 23 25 27 26 26 25 24 23 16 10 23 24 23 26 25 24 25 25 23 24 22 12 8 11 10 5 5 5 3 1 3 11 19 24 24 23 23 24 25 22 18 15 15 14 13 11
9 8 8 9 7 4 1 3 5 7 8 7 8 10 11 12 12 10 8 9 7 8 10 9 7 9 10 10 11 9 10 15 12 19 25 20 19 18 17 19 21 24 26 27 28 26 25 25 23 23 20 14 14 17 21 24 23 23 23 22 23 25 24 14 7 9 8 5 9 9 6 5 6 10 17 21 23 23 24 25 23 19 16 12 10 12 13 11
6 5 6 6 4 2 1 2 4 8 6 6 8 8 7 10 12 9 7 6 5 10 10 8 6 7 9 8 10 10 12 15 11 8 14 19 21 18 16 17 18 22 25 27 28 26 26 26 22 19 18 18 16 16 19 21 21 23 24 22 23 24 21 17 14 14 10 6 11 9 4 6 12 15 19 22 23 23 22 22 19 16 15 12 11 15 16 15
5 5 7 4 2 1 1 3 5 9 7 7 9 7 6 8 9 7 8 6 7 12 12 10 7 8 7 5 10 13 13 14 12 9 6 10 13 10 11 15 19 23 24 24 28 28 27 26 22 14 9 11 14 12 14 21 21 20 22 22 23 23 21 19 17 16 13 8 9 7 5 12 21 24 25 28 28 25 23 22 18 16 17 16 17 20 20 17
1 2 5 3 1 0 2 4 7 8 7 8 10 9 9 9 6 4 6 7 8 10 13 10 7 9 8 6 10 13 12 13 14 13 12 8 7 6 6 10 15 23 26 22 21 24 27 27 25 18 6 5 8 4 5 21 23 16 19 21 22 22 23 22 17 12 9 5 4 8 15 22 26 27 28 30 30 26 23 20 17 16 15 15 15 17 20 18
4 4 5 4 3 2 0 1 3 6 6 9 13 10 9 9 9 8 8 10 8 6 9 11 10 10 9 7 10 13 13 13 14 16 16 12 12 11 8 10 13 16 24 23 18 20 27 28 25 23 17 16 18 12 5 13 19 15 15 19 23 23 23 23 19 13 9 4 1 9 23 28 28 29 28 26 23 21 19 18 19 18 15 14 13 14 18 21
7 7 7 6 4 3 3 3 3 4 4 9 14 11 8 10 12 10 9 11 12 8 10 14 14 13 13 11 13 15 15 13 13 15 15 13 13 12 10 13 13 10 12 19 18 16 19 20 18 19 20 20 21 17 11 7 10 14 14 16 22 25 25 25 23 19 15 10 4 15 29 31 31 30 25 21 19 18 19 22 23 22 19 17 15 14 18 21
10 10 9 8 7 5 4 4 4 4 4 6 12 13 11 12 15 14 11 11 11 10 13 14 12 13 14 12 14 17 18 16 14 12 11 9 10 11 11 11 10 8 5 16 24 20 15 13 11 12 14 15 14 14 13 10 7 13 17 17 17 20 24 27 28 26 22 17 11 20 29 27 29 29 23 20 20 20 21 24 25 24 22 21 17 15 17 18
11 13 13 12 11 8 7 5 4 5 5 6 10 11 11 15 16 16 14 12 11 10 12 14 11 10 11 12 14 14 12 12 11 8 8 8 7 8 9 6 5 4 4 8 20 24 22 18 15 14 13 13 12 12 11 9 11 12 15 15 15 17 19 22 27 29 26 20 14 20 25 25 28 29 25 23 23 22 22 25 27 26 24 22 19 17 17 15
10 12 14 16 15 13 10 8 7 7 5 4 7 7 7 11 13 13 12 11 14 11 7 11 12 8 5 7 9 5 1 3 4 5 8 9 6 4 4 4 3 2 5 4 5 17 23 20 18 20 17 15 16 15 11 8 13 14 10 12 15 17 19 20 19 19 19 17 15 17 23 25 27 27 26 27 27 26 26 27 28 27 25 23 20 18 16 13
10 11 13 16 17 16 15 13 11 10 8 6 6 5 6 6 8 12 11 7 11 11 5 6 10 8 3 4 4 2 3 5 5 5 7 7 5 1 2 1 3 3 4 6 4 6 15 14 11 15 16 16 17 16 13 13 15 11 6 8 12 15 18 19 15 11 12 14 15 18 24 26 24 25 28 29 29 30 30 29 29 27 24 23 20 17 14 11
10 10 12 15 15 16 17 18 16 15 13 12 9 7 8 8 8 11 10 5 8 11 8 6 8 9 6 4 4 3 4 7 9 10 10 8 5 2 2 3 2 2 6 4 5 5 2 5 3 6 12 15 16 16 15 15 12 6 5 11 14 13 13 16 15 12 13 15 12 11 15 18 21 25 29 29 29 31 31 30 29 28 26 23 18 14 12 10
Wind_Direction
299 300 301 302 303 303 304 303 302 298 294 292 294 297 301 303 304 302 290 277 265 248 241 249 262 279 277 326 8 36 24 18 17 3 167 157 150 146 149 157 159 156 151 150 138 117 105 91 70 54 44 38 26 1 358 354 346 344 338 344 332 312 294 283 254 232 203 194 183 165 172 166 162 163 156 155 157 156 156 158 160 161 162 169 168 161 174 177
294 295 297 299 300 300 300 301 302 300 296 292 289 291 294 298 301 302 294 279 266 247 238 241 255 268 258 102 68 59 32 32 50 110 148 143 138 141 146 155 154 149 146 141 127 107 100 94 67 55 43 31 26 6 354 352 354 352 355 7 9 16 8 358 172 181 154 152 169 160 162 157 156 159 155 153 156 157 156 158 162 162 161 168 170 170 181 179
291 291 293 295 296 297 297 297 299 299 298 294 289 287 288 292 295 298 296 283 267 249 236 236 247 256 234 137 99 71 54 68 87 112 129 133 131 137 145 152 151 146 142 136 124 107 98 84 65 56 44 33 26 12 358 355 356 3 10 21 43 54 47 50 118 155 138 138 160 152 145 148 155 157 152 153 158 159 159 164 168 166 164 170 173 175 182 181
289 288 289 290 291 293 294 294 295 296 296 295 291 286 283 285 287 292 293 284 269 250 236 233 239 244 214 150 119 89 85 93 104 117 126 133 134 137 142 150 154 148 142 135 128 114 96 75 63 54 44 37 26 15 4 356 355 6 16 22 54 69 68 73 119 137 122 135 156 150 142 146 152 151 151 157 160 161 165 170 172 170 165 168 175 177 181 183
288 287 286 286 287 289 291 292 292 292 293 293 291 287 281 280 281 285 288 285 270 250 237 231 233 233 202 163 142 116 108 100 114 127 128 136 142 143 143 149 152 150 152 143 136 122 94 75 64 54 49 41 27 16 7 2 358 3 21 27 56 82 86 84 106 113 111 137 157 154 144 144 145 144 151 159 160 164 168 165 168 172 166 166 174 179 180 183
287 287 286 284 284 285 286 289 290 289 289 290 289 287 281 276 276 278 281 282 270 250 236 228 228 226 203 176 160 138 124 109 121 129 131 141 145 149 151 154 152 153 163 151 147 134 96 79 66 57 52 44 32 20 12 10 4 359 17 40 72 105 108 101 85 68 107 140 156 154 144 145 143 141 146 153 155 156 159 157 167 174 169 168 173 179 180 183
287 286 285 284 282 282 282 285 287 288 287 287 287 286 282 275 272 273 274 277 269 250 234 226 225 221 206 183 167 150 136 124 120 122 135 150 147 155 170 164 153 153 160 150 152 149 118 91 66 60 50 42 35 23 15 11 10 3 11 60 92 113 118 122 116 98 112 138 150 149 148 146 139 141 143 145 149 147 149 157 167 172 171 173 176 180 181 184
284 284 284 283 282 281 280 281 284 285 285 284 284 284 283 275 269 269 269 270 267 250 234 225 222 220 208 189 175 164 150 133 130 129 138 155 160 168 178 178 154 143 158 156 162 164 146 120 68 59 46 39 29 16 11 5 5 1 2 66 110 115 119 135 143 146 153 155 156 150 149 146 139 146 145 140 145 146 149 157 163 169 174 178 181 181 181 186
281 281 282 281 280 279 278 278 279 282 283 282 281 281 281 277 268 265 264 264 262 252 236 225 220 219 210 193 185 181 171 146 142 138 131 145 174 188 188 194 167 145 152 148 177 179 147 137 82 44 25 22 15 3 3 356 350 356 3 31 120 139 124 142 156 166 175 171 166 159 153 154 152 152 146 138 142 148 153 156 161 171 180 182 183 182 183 190
278 278 278 278 278 277 275 275 275 277 279 279 278 277 278 277 269 263 260 259 257 251 238 226 219 217 212 199 192 190 181 163 151 145 135 130 163 193 201 205 185 161 104 94 124 118 104 109 69 31 10 2 356 350 355 351 337 348 2 9 31 171 144 147 155 162 180 179 169 166 167 166 161 154 151 146 145 151 155 156 163 176 184 184 183 182 188 192
277 275 274 275 274 273 273 272 272 273 275 276 275 275 275 276 271 262 257 256 252 249 241 228 220 215 213 206 196 193 188 182 172 155 145 138 153 183 199 225 211 174 78 100 102 77 64 61 52 23 352 342 341 337 342 350 338 324 334 350 353 173 152 149 149 138 165 178 168 170 182 173 165 164 162 156 155 162 163 161 168 181 187 184 181 185 194 193
278 275 273 272 271 271 270 269 269 271 272 273 272 272 272 274 273 264 256 254 249 247 242 230 223 216 215 209 194 194 196 194 191 172 159 166 171 176 187 213 221 204 87 118 112 76 59 55 65 339 318 329 341 335 335 0 1 321 317 322 327 138 148 163 160 143 156 173 168 173 189 177 168 175 172 161 165 172 170 170 176 183 186 181 179 187 198 191
278 276 273 270 269 269 267 266 267 268 270 271 271 270 270 272 273 268 258 253 250 246 241 233 224 217 216 209 196 202 202 194 189 183 187 194 190 180 184 194 206 214 121 130 176 96 77 79 127 241 295 323 345 330 321 340 338 324 321 303 297 305 156 176 180 174 169 175 176 176 189 188 177 180 180 171 173 180 175 176 180 184 184 178 178 189 197 190
282 277 274 270 267 266 265 264 263 264 267 268 269 267 267 269 271 269 260 253 250 246 240 235 226 218 216 204 200 211 207 199 191 181 188 199 199 191 188 195 201 209 154 131 207 186 122 136 174 272 287 317 328 303 307 316 313 311 302 282 275 275 261 175 177 183 180 181 183 182 193 197 188 182 185 183 181 186 183 178 181 185 182 177 179 189 193 190
290 282 276 271 268 264 262 262 260 261 263 265 267 265 264 266 268 268 262 254 251 247 241 236 228 220 213 197 197 212 210 208 203 195 195 195 197 194 191 200 203 205 193 133 176 164 135 153 229 264 279 313 309 299 312 316 308 294 270 270 271 250 249 199 166 173 182 182 178 185 200 195 190 185 184 186 185 186 187 178 178 184 182 179 182 186 185 189
293 290 280 272 268 264 260 258 257 258 259 262 264 263 262 261 264 265 262 255 249 249 243 237 229 220 212 197 196 212 218 214 207 206 203 189 187 187 187 200 202 204 203 161 167 155 148 181 227 257 273 297 303 307 311 306 302 287 261 263 268 240 226 202 170 166 176 181 175 181 186 182 186 187 184 186 184 183 188 182 177 183 186 185 184 182 182 190
287 290 287 277 268 263 260 256 253 254 256 258 259 261 259 256 259 261 259 253 247 247 243 237 228 219 211 199 198 212 224 220 207 205 199 181 182 187 189 197 199 201 199 188 181 168 170 197 235 263 271 279 292 301 295 291 299 303 276 260 261 254 239 219 183 169 168 176 182 180 176 179 181 181 184 188 186 185 190 188 182 184 189 190 185 180 183 191
282 283 286 284 273 264 261 255 251 249 252 254 254 257 255 253 256 256 254 250 244 244 242 235 227 221 211 201 200 212 225 231 222 217 208 187 188 197 201 196 188 192 205 206 199 186 181 194 229 258 269 275 283 283 276 284 302 313 310 288 275 260 247 240 193 165 159 168 181 181 174 178 176 177 183 186 189 191 192 190 188 188 187 187 186 183 185 192
279 278 279 283 278 266 261 256 250 245 248 250 250 252 251 251 255 256 255 251 245 240 238 233 222 212 201 193 189 202 218 231 232 228 226 213 204 202 205 202 189 189 209 213 201 190 197 227 231 242 255 267 280 281 275 286 304 309 307 299 284 261 242 228 184 160 153 159 169 174 173 177 173 176 182 184 189 193 193 193 193 192 187 184 187 188 191 196
276 276 275 278 278 270 260 256 250 243 243 245 247 248 247 245 248 253 254 252 251 244 239 235 224 206 195 188 179 184 199 213 226 227 220 220 213 204 202 205 198 196 210 206 191 183 228 240 240 239 242 256 279 288 285 292 302 299 301 299 279 250 219 185 172 170 161 155 157 158 163 175 173 175 182 184 187 191 194 194 196 199 192 186 191 197 203 203
273 272 273 272 276 272 258 254 249 242 239 238 241 240 240 240 243 254 256 252 250 251 246 240 234 212 188 185 181 179 186 199 213 220 214 208 209 209 202 201 201 202 204 194 208 254 250 241 248 250 241 251 273 283 289 299 295 285 299 297 261 224 193 164 162 167 165 158 152 150 150 156 164 177 184 187 189 191 194 194 198 204 199 193 194 200 206 202
273 268 270 268 272 269 256 251 245 239 234 228 226 222 228 231 236 253 261 255 241 246 248 240 238 221 187 182 185 183 187 193 196 206 213 214 213 213 205 202 208 208 206 217 239 244 242 246 256 264 250 249 267 279 289 301 292 287 301 275 223 198 177 171 170 160 155 153 148 147 148 153 160 175 185 191 195 192 194 195 198 203 202 201 199 199 202 197
276 266 266 264 266 265 252 244 239 234 226 220 219 215 223 230 234 246 261 268 248 232 243 239 238 226 189 173 181 185 190 190 186 193 204 213 216 215 210 208 212 213 214 226 237 236 237 246 251 254 253 251 267 274 277 288 285 286 284 209 197 186 182 189 182 170 142 140 160 160 156 168 174 186 190 188 193 193 194 194 197 204 206 205 203 200 199 195
278 265 261 257 260 258 245 236 231 225 218 216 217 217 227 235 244 252 262 277 269 229 234 239 237 229 188 170 180 188 188 188 190 192 197 208 214 215 215 213 214 217 216 218 226 234 239 243 243 249 252 247 260 267 269 276 280 288 276 214 202 202 213 204 173 162 153 163 188 175 174 194 190 189 187 178 185 192 190 188 191 202 209 211 210 205 198 195
278 265 255 251 254 250 237 227 221 217 213 216 220 223 231 238 251 262 268 279 277 247 231 237 237 224 183 175 186 186 184 191 193 192 195 203 211 214 215 214 217 222 219 212 216 231 239 240 242 250 249 242 254 268 274 274 277 289 292 260 232 220 213 181 159 156 174 198 197 179 179 204 197 194 185 180 184 183 183 188 188 192 200 205 209 207 199 194
277 265 252 247 248 242 229 218 213 213 213 218 223 227 235 245 255 268 277 287 288 266 232 231 232 216 186 185 186 181 192 201 189 190 197 198 208 216 215 212 217 222 220 215 217 228 234 236 244 249 247 245 253 268 274 271 278 281 288 306 259 216 184 163 162 161 176 196 189 183 183 189 199 202 186 188 191 182 185 191 186 184 187 195 201 202 199 194
279 264 249 244 244 234 219 211 206 209 213 215 222 230 238 246 249 264 282 295 304 270 209 210 206 197 193 190 185 184 202 200 178 185 197 197 204 215 217 214 217 220 216 219 228 232 235 235 238 241 245 245 245 262 270 266 278 275 283 319 233 195 179 170 173 166 170 177 176 186 197 188 208 211 187 194 198 188 198 203 191 189 183 185 196 198 197 194
276 260 245 241 240 224 211 205 197 204 209 200 203 217 216 212 196 184 263 282 294 189 182 195 189 180 182 187 190 194 202 195 182 187 195 199 204 209 219 219 219 224 216 217 227 230 238 244 239 237 241 240 242 261 268 264 272 266 277 307 183 193 200 189 192 186 176 178 182 191 202 206 228 217 188 199 208 201 207 211 199 198 187 179 189 194 193 194
271 254 238 234 236 216 204 199 194 200 198 178 180 193 194 190 164 165 209 183 190 167 149 171 178 178 171 178 195 201 202 200 196 195 196 200 204 207 218 222 220 231 227 222 228 229 231 241 247 247 240 237 249 271 270 264 267 261 273 273 216 223 207 191 194 189 179 192 198 191 193 203 246 213 191 199 214 215 215 213 200 200 197 185 190 191 186 189
271 252 232 229 231 208 197 196 195 199 188 174 180 178 175 172 160 170 229 178 177 189 195 181 170 177 177 177 193 202 205 208 205 198 197 201 204 207 216 224 223 231 234 231 235 237 235 239 252 254 247 243 259 281 273 267 264 257 272 274 266 257 205 191 192 184 172 210 215 195 190 197 226 214 204 205 209 210 211 209 199 199 206 202 200 193 180 181
275 250 221 222 224 201 195 197 197 199 187 180 186 179 169 164 165 177 198 184 188 200 204 192 174 188 196 188 194 199 205 212 208 201 198 203 206 207 212 221 225 229 235 237 239 241 242 245 254 257 251 245 249 262 265 266 257 252 267 270 284 297 187 180 184 183 166 229 224 208 195 197 212 219 220 225 215 200 207 203 188 183 191 196 198 194 178 176
281 233 204 212 212 197 196 197 196 196 189 185 184 179 171 165 187 207 191 173 172 183 204 202 192 201 212 207 205 204 204 208 207 207 210 208 207 205 207 212 216 218 227 233 235 241 244 244 251 260 253 241 234 242 256 258 248 246 253 259 275 312 157 161 174 184 194 226 230 212 196 200 224 234 240 249 242 221 214 206 187 171 170 178 185 189 179 171
283 197 194 201 201 198 197 196 195 194 190 186 183 178 172 167 213 213 199 168 119 65 341 254 226 212 208 208 207 208 210 210 208 208 213 216 209 206 206 207 212 215 220 226 232 242 246 243 245 254 253 238 225 233 251 247 239 238 238 244 250 242 94 149 186 200 212 229 232 203 193 202 227 238 251 255 246 225 210 203 188 168 161 166 170 184 188 180
236 191 190 192 197 199 195 192 195 194 191 188 184 179 179 190 216 212 216 220 207 3 353 322 265 224 205 209 204 200 211 217 215 210 210 213 212 208 206 206 211 220 225 229 233 236 242 244 235 231 239 233 223 233 252 248 239 237 229 231 240 239 239 183 198 180 201 231 216 187 189 211 223 234 257 257 246 224 206 196 184 172 167 166 168 184 194 191
157 189 190 195 198 194 189 192 194 191 191 190 186 185 193 208 217 218 243 246 279 328 338 352 276 220 204 209 206 199 211 215 211 213 212 212 215 212 210 209 211 218 225 227 230 230 237 246 233 223 232 235 230 235 247 249 237 228 222 231 244 244 242 241 239 221 203 228 176 180 197 231 229 236 256 253 238 219 204 195 191 184 183 183 181 188 194 197
68 160 194 197 193 186 187 192 191 189 191 191 193 199 207 214 215 217 236 212 278 330 336 4 293 203 204 210 206 203 211 211 204 208 212 213 216 217 215 215 214 216 221 224 225 222 227 239 236 232 243 244 241 239 234 231 221 208 218 227 226 230 235 243 258 247 223 268 202 195 203 220 227 237 249 241 223 214 206 199 196 190 192 193 188 192 199 204
27 37 182 182 176 177 185 189 187 190 192 194 202 211 218 222 222 214 192 196 273 331 332 341 340 198 204 212 210 205 208 208 199 203 213 214 217 222 220 219 219 219 223 226 225 221 225 244 243 239 255 250 239 237 229 222 215 202 211 220 220 238 242 242 259 253 210 230 233 196 185 195 210 221 231 220 200 202 205 202 198 194 197 198 191 194 205 212
20 53 128 145 160 171 183 188 187 191 194 202 212 219 226 231 230 225 217 238 293 321 324 327 340 55 197 213 215 208 210 209 196 200 214 215 219 227 218 216 221 223 227 228 228 227 231 253 254 245 268 260 229 222 217 216 218 213 215 224 233 256 246 232 233 222 202 213 274 183 176 190 212 214 204 199 190 189 195 201 203 201 199 198 194 194 204 215
41 88 125 128 139 162 184 189 190 196 202 210 219 226 233 240 239 234 239 262 293 315 322 322 322 340 346 329 332 334 224 216 205 203 211 212 218 224 213 212 219 223 225 223 226 231 230 246 259 251 274 259 211 211 211 206 211 220 230 245 251 258 263 249 238 214 198 193 149 197 197 199 227 225 199 190 187 180 184 195 204 202 198 202 200 195 200 213
76 97 120 119 118 134 196 203 197 204 213 220 229 235 242 253 251 236 240 258 282 302 312 317 306 304 318 307 302 347 277 226 223 217 212 209 214 217 212 215 222 221 221 221 225 230 228 235 249 253 274 214 191 204 213 205 203 215 230 244 246 248 258 264 267 249 221 191 143 177 195 182 242 237 207 189 183 178 180 188 194 193 192 198 200 197 202 209
108 102 106 108 104 105 206 223 220 226 233 238 245 251 260 269 258 235 230 241 268 300 310 318 310 298 304 291 290 325 334 294 262 228 215 210 210 213 214 221 228 222 215 219 225 226 226 231 240 250 265 222 194 205 218 211 209 215 226 236 238 243 249 257 287 271 244 211 170 156 134 128 236 233 211 194 184 178 175 174 176 182 184 184 189 197 204 206
113 103 111 112 101 94 191 232 243 242 245 264 277 277 278 273 259 244 222 217 254 309 321 323 309 289 293 289 289 308 322 328 303 228 216 216 217 221 220 221 230 225 213 216 223 223 225 231 239 250 260 254 227 226 227 221 219 222 227 233 234 240 246 240 250 276 266 194 160 138 128 165 190 204 200 190 181 174 170 171 177 184 184 175 171 184 199 206
80 94 132 129 102 87 261 247 246 248 262 311 310 294 288 281 276 263 212 204 297 330 323 312 295 290 301 293 284 299 315 322 317 252 228 225 226 236 235 229 232 225 214 215 220 221 221 225 233 245 255 264 264 255 240 227 221 225 228 232 236 239 242 240 244 266 274 194 152 124 112 174 166 164 173 173 168 166 169 177 183 180 173 168 168 180 191 200
59 95 122 112 85 93 302 304 295 278 280 315 318 314 321 310 299 269 214 225 324 336 324 309 285 283 298 295 288 299 311 307 305 322 307 238 231 248 253 248 240 226 214 214 218 217 215 219 225 233 254 263 261 267 247 218 210 226 231 231 240 242 243 249 254 263 264 222 163 133 151 169 156 152 160 165 165 167 169 171 170 165 167 176 183 190 194 199
360 127 134 116 133 123 352 338 320 295 282 308 312 308 314 321 333 307 259 280 312 321 317 299 257 269 290 298 296 296 299 294 291 306 317 292 275 295 292 282 259 232 218 214 217 218 216 218 224 226 222 232 240 275 219 196 197 221 232 233 244 245 243 249 252 250 247 220 177 164 161 159 156 156 163 168 170 170 169 168 163 155 159 170 177 186 195 198
251 251 216 206 206 205 242 345 313 286 279 303 305 295 288 299 322 326 308 309 310 302 302 288 268 275 284 289 303 305 299 290 286 294 303 303 308 310 291 292 291 247 218 210 212 219 216 214 222 230 235 241 242 245 231 196 194 207 227 237 242 241 244 249 250 247 237 228 239 166 158 159 164 166 165 168 170 170 171 175 172 165 165 169 165 170 187 196
238 250 243 242 238 219 198 178 202 240 262 300 305 299 287 291 307 315 316 319 313 283 271 282 282 270 263 278 306 311 304 291 286 300 306 300 303 304 279 273 292 289 231 209 204 208 207 204 215 231 239 248 249 250 264 259 212 216 244 256 243 239 244 246 249 253 248 250 238 166 162 164 167 168 170 173 181 187 183 179 180 182 180 175 168 165 176 190
235 245 249 255 253 234 213 192 191 218 240 287 298 298 306 311 307 307 316 325 318 285 260 266 276 265 259 278 299 300 302 300 295 308 322 313 299 296 293 282 282 306 275 201 196 198 203 204 210 227 241 247 246 248 264 287 275 250 260 271 260 247 244 244 248 249 244 255 242 181 173 174 174 179 192 199 201 203 189 179 183 185 178 172 176 176 174 184
240 243 247 252 252 249 243 227 220 236 245 285 297 299 316 317 301 295 308 326 330 308 267 257 264 268 265 274 279 282 299 308 302 308 324 331 320 304 320 323 272 312 37 167 193 203 210 215 216 229 250 251 246 259 271 293 313 290 264 264 271 266 261 259 258 250 242 251 240 189 180 187 188 192 204 209 206 198 184 179 181 181 177 180 189 191 182 182
257 247 246 248 248 252 255 245 241 246 246 288 295 295 314 315 301 291 295 318 328 321 277 246 246 252 278 288 274 253 242 300 304 312 307 312 319 317 358 6 264 262 29 26 211 208 212 218 221 228 240 245 251 269 281 295 320 320 287 261 263 268 274 279 277 260 245 247 241 206 191 192 193 198 204 202 197 190 182 180 180 181 184 187 188 186 181 181
278 260 252 250 246 247 250 246 245 245 239 250 272 287 290 286 292 286 273 291 316 308 284 247 245 245 286 321 295 232 203 232 238 248 270 288 311 344 82 8 264 273 342 359 42 180 205 208 212 220 225 234 245 256 272 296 312 316 303 292 286 279 275 276 283 283 266 264 255 224 207 201 198 201 200 193 187 187 183 180 180 180 179 180 179 177 177 180
296 278 263 256 249 245 244 244 245 244 241 243 249 270 279 268 276 287 277 283 311 297 285 276 255 248 262 310 326 302 255 243 238 237 241 247 258 237 151 165 182 19 356 352 32 25 229 205 242 237 222 230 242 250 271 299 313 306 327 339 329 320 299 277 275 285 285 283 274 243 230 226 211 199 193 184 182 185 183 180 180 176 172 175 181 185 186 191
Height
3152 3151 3150 3150 3149 3148 3148 3147 3147 3146 3146 3145 3145 3144 3144 3143 3143 3142 3142 3142 3143 3143 3144 3145 3145 3146 3146 3147 3147 3147 3147 3146 3146 3145 3145 3146 3147 3148 3148 3149 3150 3151 3152 3153 3154 3154 3154 3154 3154 3154 3152 3151 3150 3149 3149 3148 3148 3146 3145 3144 3143 3142 3141 3140 3139 3139 3139 3139 3140 3140 3141 3142 3143 3145 3147 3149 3151 3153 3154 3156 3157 3158 3159 3159 3162 3163 3162 3162
3150 3149 3149 3148 3148 3147 3146 3146 3145 3145 3144 3144 3144 3143 3143 3142 3142 3141 3141 3141 3141 3142 3143 3144 3144 3145 3146 3146 3146 3147 3146 3146 3145 3145 3145 3146 3147 3148 3149 3149 3150 3151 3153 3153 3154 3154 3154 3154 3154 3153 3152 3151 3150 3149 3148 3147 3147 3146 3145 3143 3143 3142 3141 3140 3139 3139 3139 3141 3141 3141 3142 3143 3144 3146 3148 3150 3152 3153 3154 3155 3157 3158 3159 3160 3162 3163 3163 3163
3148 3148 3147 3147 3146 3145 3145 3144 3144 3143 3143 3142 3142 3142 3141 3141 3141 3140 3140 3140 3140 3141 3141 3142 3143 3144 3145 3146 3146 3146 3146 3146 3145 3145 3146 3147 3148 3148 3149 3150 3151 3152 3153 3153 3154 3154 3155 3155 3154 3153 3152 3151 3150 3150 3148 3147 3146 3146 3145 3144 3143 3142 3141 3140 3140 3140 3141 3142 3142 3141 3142 3144 3145 3147 3150 3151 3153 3154 3154 3155 3155 3157 3158 3159 3162 3163 3163 3164
3147 3146 3146 3145 3144 3144 3143 3143 3142 3142 3141 3141 3141 3140 3140 3140 3140 3139 3139 3139 3139 3139 3140 3141 3142 3143 3144 3145 3146 3146 3146 3146 3146 3146 3147 3148 3148 3149 3149 3150 3151 3152 3153 3153 3154 3155 3155 3155 3154 3153 3152 3152 3151 3150 3149 3148 3147 3146 3146 3144 3143 3143 3141 3141 3141 3142 3143 3143 3143 3143 3143 3145 3147 3149 3151 3152 3153 3154 3155 3155 3156 3157 3158 3159 3162 3164 3164 3165
3145 3144 3144 3143 3143 3142 3142 3141 3141 3140 3140 3139 3139 3139 3139 3138 3138 3138 3138 3138 3138 3138 3139 3140 3141 3142 3143 3144 3145 3146 3146 3147 3147 3147 3147 3148 3149 3149 3149 3150 3151 3152 3153 3153 3154 3154 3154 3154 3154 3153 3153 3153 3152 3151 3150 3149 3148 3147 3146 3145 3144 3144 3143 3142 3143 3143 3144 3144 3144 3145 3145 3147 3149 3150 3152 3153 3154 3155 3156 3157 3158 3159 3159 3160 3162 3164 3165 3166
3143 3142 3142 3141 3141 3140 3140 3140 3139 3139 3138 3138 3138 3137 3137 3137 3137 3137 3137 3137 3137 3137 3138 3139 3140 3141 3143 3144 3145 3145 3146 3146 3147 3147 3147 3148 3149 3150 3150 3151 3152 3152 3152 3153 3154 3154 3154 3154 3154 3154 3153 3153 3153 3152 3151 3150 3149 3147 3146 3145 3144 3144 3144 3144 3144 3144 3145 3145 3146 3146 3147 3149 3150 3151 3153 3154 3155 3156 3157 3158 3159 3160 3161 3163 3164 3165 3166 3167
3140 3140 3140 3139 3139 3139 3138 3138 3138 3137 3137 3137 3136 3136 3136 3135 3135 3135 3135 3136 3136 3136 3136 3138 3139 3140 3142 3143 3144 3145 3145 3146 3147 3147 3148 3149 3149 3150 3151 3151 3152 3152 3152 3153 3154 3155 3154 3154 3154 3153 3153 3153 3153 3152 3151 3150 3149 3148 3147 3146 3145 3144 3145 3146 3146 3146 3147 3147 3148 3148 3149 3151 3151 3152 3153 3154 3155 3156 3157 3159 3160 3161 3162 3164 3166 3166 3167 3168
3138 3138 3137 3137 3137 3137 3136 3136 3136 3136 3135 3135 3135 3134 3134 3134 3134 3134 3134 3134 3135 3135 3135 3136 3138 3139 3141 3142 3143 3144 3145 3145 3146 3147 3148 3149 3150 3150 3151 3151 3152 3153 3153 3153 3154 3155 3154 3154 3154 3153 3153 3153 3153 3152 3152 3151 3149 3148 3147 3146 3145 3145 3145 3147 3147 3147 3147 3148 3149 3150 3151 3152 3153 3153 3154 3154 3155 3156 3157 3159 3160 3161 3163 3165 3166 3167 3168 3170
3136 3135 3135 3135 3135 3134 3134 3134 3134 3134 3134 3133 3133 3133 3133 3132 3132 3132 3133 3133 3133 3133 3134 3135 3136 3138 3139 3141 3142 3143 3144 3145 3146 3147 3147 3148 3149 3150 3151 3152 3152 3153 3153 3153 3154 3155 3154 3154 3153 3153 3153 3153 3152 3152 3152 3151 3150 3149 3148 3147 3145 3145 3146 3147 3148 3148 3148 3149 3149 3150 3152 3153 3154 3154 3154 3155 3156 3157 3158 3159 3161 3162 3164 3166 3167 3167 3169 3170
3133 3133 3133 3133 3133 3132 3132 3132 3132 3132 3132 3132 3132 3132 3131 3131 3131 3131 3131 3131 3132 3132 3132 3133 3135 3136 3138 3139 3141 3142 3143 3144 3145 3146 3147 3148 3149 3150 3151 3152 3152 3153 3153 3153 3154 3155 3153 3152 3153 3153 3153 3152 3152 3152 3152 3151 3151 3151 3150 3148 3147 3147 3148 3148 3149 3148 3149 3150 3150 3150 3152 3153 3154 3155 3155 3156 3157 3158 3159 3160 3162 3163 3165 3167 3167 3168 3169 3171
3131 3131 3131 3130 3130 3130 3130 3130 3130 3130 3130 3130 3130 3130 3130 3130 3129 3129 3129 3130 3130 3130 3131 3132 3133 3135 3137 3138 3140 3141 3142 3144 3145 3145 3146 3148 3149 3150 3151 3152 3152 3152 3153 3153 3154 3154 3153 3152 3152 3153 3153 3153 3153 3152 3152 3151 3151 3151 3150 3149 3148 3147 3148 3148 3149 3150 3150 3151 3150 3150 3152 3153 3154 3155 3156 3156 3157 3158 3159 3160 3162 3164 3165 3167 3168 3169 3170 3171
3128 3128 3128 3128 3128 3128 3128 3128 3128 3128 3128 3129 3128 3128 3128 3128 3128 3128 3128 3128 3128 3129 3129 3130 3131 3133 3135 3137 3139 3140 3141 3142 3144 3145 3146 3147 3148 3149 3150 3152 3152 3152 3153 3153 3154 3153 3153 3153 3153 3154 3155 3154 3153 3152 3152 3151 3151 3151 3150 3149 3148 3147 3147 3148 3149 3150 3151 3151 3151 3152 3153 3154 3154 3155 3156 3156 3157 3158 3159 3161 3162 3164 3166 3167 3168 3169 3170 3171
3125 3125 3125 3125 3125 3125 3126 3126 3126 3126 3126 3127 3126 3126 3126 3126 3126 3126 3126 3126 3127 3127 3128 3128 3129 3131 3134 3136 3138 3138 3139 3141 3142 3144 3145 3146 3147 3148 3150 3151 3151 3152 3152 3153 3153 3153 3153 3155 3155 3156 3156 3155 3153 3151 3151 3152 3152 3151 3151 3150 3148 3148 3148 3149 3149 3150 3151 3152 3152 3152 3153 3153 3154 3155 3156 3156 3157 3158 3159 3160 3162 3164 3165 3167 3168 3169 3170 3171
3123 3123 3123 3123 3123 3123 3123 3124 3124 3124 3124 3125 3125 3124 3124 3125 3124 3124 3124 3125 3125 3125 3126 3126 3128 3130 3132 3135 3136 3136 3138 3139 3140 3142 3144 3145 3146 3148 3149 3150 3151 3151 3152 3152 3153 3154 3154 3155 3155 3154 3155 3155 3153 3151 3152 3152 3152 3152 3151 3149 3148 3149 3149 3149 3150 3150 3151 3151 3152 3152 3152 3153 3154 3155 3155 3156 3157 3158 3159 3160 3162 3163 3165 3166 3167 3169 3169 3170
3120 3120 3120 3120 3120 3120 3121 3121 3122 3122 3122 3123 3123 3123 3123 3123 3123 3123 3123 3123 3123 3123 3124 3125 3127 3128 3131 3134 3134 3133 3135 3136 3139 3141 3142 3144 3145 3147 3148 3149 3150 3151 3152 3152 3153 3155 3154 3155 3154 3153 3154 3154 3152 3151 3151 3152 3152 3152 3151 3149 3149 3149 3150 3150 3150 3150 3151 3150 3151 3152 3152 3152 3153 3154 3155 3156 3157 3158 3159 3160 3161 3162 3164 3166 3167 3168 3169 3170
3118 3118 3117 3117 3117 3118 3118 3118 3119 3120 3120 3121 3121 3121 3121 3121 3121 3121 3121 3121 3121 3121 3122 3123 3125 3126 3129 3132 3132 3131 3132 3135 3138 3140 3141 3143 3144 3146 3148 3149 3150 3150 3151 3152 3153 3154 3155 3155 3154 3153 3154 3154 3151 3150 3150 3150 3150 3151 3150 3150 3150 3150 3150 3150 3149 3150 3150 3150 3150 3151 3151 3151 3152 3153 3154 3156 3157 3158 3158 3160 3161 3162 3164 3165 3166 3167 3169 3170
3116 3115 3115 3115 3115 3115 3115 3116 3117 3117 3118 3119 3119 3119 3119 3119 3119 3119 3119 3119 3119 3119 3120 3121 3123 3125 3126 3128 3129 3130 3131 3134 3137 3139 3140 3142 3143 3145 3146 3147 3149 3150 3151 3152 3153 3154 3154 3155 3154 3152 3154 3153 3150 3150 3149 3147 3148 3149 3150 3150 3151 3152 3151 3150 3149 3149 3149 3150 3150 3151 3151 3151 3151 3152 3153 3154 3156 3157 3158 3159 3160 3161 3163 3164 3165 3167 3168 3170
3113 3113 3112 3112 3112 3112 3112 3113 3114 3115 3116 3117 3117 3117 3117 3117 3117 3117 3117 3117 3117 3118 3118 3119 3121 3123 3124 3126 3129 3130 3131 3134 3136 3138 3140 3141 3142 3144 3145 3147 3148 3149 3151 3151 3151 3152 3153 3154 3154 3153 3152 3151 3150 3149 3148 3146 3148 3151 3151 3150 3151 3152 3152 3150 3149 3149 3148 3149 3150 3150 3150 3150 3150 3151 3152 3154 3155 3156 3157 3159 3160 3161 3162 3163 3165 3166 3168 3169
3110 3110 3110 3110 3109 3109 3110 3110 3112 3113 3114 3115 3115 3115 3115 3115 3115 3115 3115 3115 3115 3116 3116 3117 3118 3120 3122 3124 3127 3129 3131 3133 3134 3136 3138 3140 3141 3142 3144 3146 3147 3148 3149 3149 3150 3151 3151 3151 3153 3153 3150 3149 3149 3146 3145 3147 3150 3153 3151 3150 3150 3150 3151 3150 3149 3149 3149 3148 3149 3149 3150 3150 3150 3150 3152 3153 3154 3156 3157 3158 3159 3160 3161 3163 3164 3165 3167 3168
3106 3107 3107 3107 3107 3107 3107 3108 3109 3111 3112 3113 3113 3114 3114 3114 3113 3113 3113 3113 3113 3114 3114 3115 3116 3118 3120 3122 3125 3127 3129 3130 3132 3134 3136 3138 3139 3141 3142 3144 3145 3146 3146 3147 3148 3149 3149 3149 3150 3151 3149 3149 3147 3144 3144 3147 3151 3153 3151 3148 3147 3148 3149 3149 3148 3148 3148 3148 3149 3149 3149 3149 3150 3150 3151 3153 3154 3155 3156 3157 3158 3159 3160 3162 3163 3164 3166 3167
3103 3104 3104 3104 3104 3105 3105 3106 3107 3109 3110 3111 3111 3112 3112 3112 3112 3111 3109 3110 3112 3112 3113 3114 3115 3117 3119 3120 3122 3124 3126 3127 3128 3131 3134 3136 3138 3138 3140 3142 3143 3143 3143 3145 3146 3147 3148 3148 3148 3149 3149 3148 3146 3144 3144 3145 3148 3152 3150 3146 3145 3147 3148 3148 3147 3147 3148 3148 3149 3149 3149 3149 3150 3151 3151 3152 3153 3154 3154 3155 3157 3158 3159 3160 3162 3163 3165 3166
3100 3101 3101 3102 3102 3102 3103 3104 3105 3107 3108 3109 3109 3109 3109 3109 3109 3107 3106 3107 3109 3110 3110 3111 3112 3114 3117 3118 3120 3121 3122 3124 3126 3128 3131 3134 3135 3136 3138 3140 3140 3140 3142 3144 3145 3146 3147 3145 3145 3147 3148 3148 3146 3143 3143 3144 3146 3150 3150 3146 3145 3147 3148 3148 3148 3148 3148 3148 3148 3148 3149 3150 3150 3151 3152 3152 3153 3154 3155 3155 3156 3157 3158 3159 3160 3162 3163 3165
3097 3098 3099 3099 3100 3100 3101 3102 3103 3105 3106 3106 3106 3106 3106 3106 3106 3106 3105 3105 3107 3108 3108 3109 3109 3112 3116 3117 3117 3118 3119 3121 3124 3126 3128 3131 3132 3134 3136 3137 3139 3139 3141 3142 3143 3145 3144 3143 3144 3146 3146 3147 3145 3141 3142 3143 3144 3147 3149 3147 3146 3147 3146 3145 3146 3148 3148 3147 3148 3149 3150 3151 3151 3151 3152 3152 3154 3155 3155 3156 3156 3157 3157 3158 3160 3161 3162 3163
3094 3095 3096 3097 3097 3098 3099 3100 3102 3103 3103 3104 3104 3105 3105 3105 3105 3105 3105 3105 3105 3106 3106 3107 3108 3110 3114 3116 3116 3117 3119 3121 3123 3124 3126 3128 3130 3133 3134 3136 3138 3139 3139 3140 3142 3143 3142 3142 3144 3144 3145 3146 3144 3140 3140 3142 3142 3144 3147 3147 3147 3145 3143 3143 3144 3146 3147 3147 3148 3149 3150 3150 3150 3150 3151 3152 3153 3154 3154 3155 3155 3155 3157 3158 3159 3160 3161 3162
3092 3092 3093 3094 3095 3096 3097 3098 3099 3100 3101 3102 3102 3103 3104 3105 3104 3105 3106 3104 3103 3104 3104 3105 3106 3108 3112 3114 3115 3117 3119 3119 3121 3122 3124 3126 3128 3130 3133 3135 3136 3137 3138 3139 3141 3141 3140 3141 3142 3143 3143 3145 3143 3138 3138 3141 3140 3140 3144 3146 3145 3143 3143 3143 3143 3144 3146 3147 3146 3147 3149 3149 3148 3149 3150 3151 3151 3152 3153 3153 3153 3154 3155 3157 3157 3158 3160 3161
3089 3090 3091 3092 3092 3094 3095 3096 3097 3098 3099 3100 3101 3102 3103 3104 3104 3105 3105 3104 3101 3101 3102 3103 3104 3106 3108 3110 3112 3116 3117 3117 3119 3121 3122 3125 3128 3129 3131 3133 3134 3135 3137 3138 3140 3139 3138 3139 3141 3141 3141 3143 3142 3138 3136 3140 3140 3138 3141 3142 3140 3141 3143 3142 3141 3142 3143 3143 3143 3144 3145 3147 3147 3147 3148 3149 3149 3150 3151 3152 3152 3153 3154 3155 3156 3157 3158 3160
3087 3088 3088 3089 3090 3092 3093 3094 3096 3097 3098 3099 3100 3101 3103 3103 3104 3105 3105 3104 3101 3099 3100 3101 3102 3104 3106 3109 3111 3113 3114 3115 3117 3120 3121 3125 3127 3128 3130 3131 3132 3133 3135 3137 3138 3136 3136 3138 3138 3139 3140 3141 3140 3136 3135 3138 3139 3137 3139 3141 3141 3143 3145 3142 3140 3140 3141 3140 3141 3142 3143 3145 3145 3145 3146 3147 3148 3149 3149 3150 3151 3152 3153 3154 3155 3156 3157 3159
3085 3086 3086 3087 3088 3090 3091 3093 3094 3095 3096 3098 3100 3101 3101 3102 3104 3104 3105 3105 3100 3097 3098 3100 3102 3103 3105 3108 3110 3110 3112 3114 3116 3118 3121 3123 3125 3126 3128 3128 3130 3132 3134 3135 3133 3133 3135 3136 3136 3137 3138 3138 3136 3134 3134 3138 3138 3135 3138 3141 3142 3144 3144 3141 3140 3141 3141 3142 3142 3142 3143 3143 3143 3143 3145 3145 3146 3147 3147 3147 3148 3150 3151 3152 3154 3155 3156 3158
3083 3083 3084 3085 3086 3088 3090 3091 3093 3094 3095 3098 3099 3099 3100 3102 3103 3104 3105 3103 3098 3097 3099 3099 3101 3103 3104 3106 3108 3110 3111 3113 3115 3118 3120 3121 3123 3125 3125 3127 3130 3131 3132 3133 3131 3132 3133 3134 3135 3135 3135 3135 3133 3131 3134 3137 3135 3133 3138 3141 3142 3143 3142 3141 3141 3140 3143 3144 3141 3139 3141 3141 3141 3141 3143 3144 3143 3143 3143 3145 3146 3148 3149 3151 3153 3155 3156 3157
3081 3082 3083 3084 3085 3087 3088 3090 3091 3092 3095 3097 3098 3099 3100 3101 3102 3104 3104 3100 3097 3097 3099 3100 3101 3102 3103 3104 3106 3109 3110 3112 3115 3117 3118 3120 3122 3123 3125 3127 3129 3130 3130 3131 3130 3130 3131 3132 3133 3134 3134 3134 3132 3131 3132 3134 3133 3133 3136 3138 3140 3141 3140 3142 3142 3140 3144 3145 3140 3137 3138 3139 3139 3139 3140 3140 3139 3139 3140 3143 3144 3146 3148 3149 3152 3154 3155 3156
3080 3080 3082 3083 3084 3085 3087 3088 3090 3091 3094 3096 3097 3098 3100 3101 3102 3103 3101 3097 3096 3097 3098 3099 3101 3102 3102 3103 3105 3107 3109 3111 3113 3115 3116 3118 3120 3122 3123 3125 3127 3128 3129 3129 3128 3129 3129 3130 3131 3131 3132 3133 3133 3131 3130 3132 3132 3132 3133 3134 3136 3136 3137 3142 3143 3142 3144 3143 3138 3136 3138 3139 3139 3137 3136 3137 3137 3138 3140 3141 3142 3144 3146 3148 3150 3153 3154 3155
3079 3079 3080 3081 3083 3084 3085 3087 3088 3090 3092 3094 3096 3098 3099 3101 3101 3099 3096 3095 3096 3097 3098 3099 3100 3100 3101 3102 3103 3105 3107 3109 3110 3112 3114 3116 3117 3118 3120 3121 3123 3125 3125 3125 3126 3127 3127 3127 3128 3130 3129 3130 3131 3130 3129 3130 3130 3131 3132 3132 3134 3133 3135 3141 3143 3141 3140 3137 3134 3135 3138 3139 3136 3133 3133 3134 3136 3138 3139 3140 3142 3144 3145 3147 3149 3151 3153 3154
3078 3079 3079 3080 3082 3083 3084 3086 3088 3089 3091 3093 3095 3097 3098 3100 3098 3094 3093 3094 3096 3097 3099 3100 3100 3100 3100 3101 3102 3103 3105 3107 3108 3110 3112 3114 3115 3116 3118 3120 3121 3122 3122 3123 3125 3126 3125 3124 3126 3127 3126 3127 3129 3127 3126 3127 3128 3129 3130 3131 3132 3132 3135 3139 3139 3138 3136 3133 3132 3134 3137 3137 3133 3131 3131 3132 3134 3136 3138 3140 3142 3144 3145 3146 3149 3151 3152 3153
3078 3078 3079 3079 3080 3081 3083 3085 3087 3089 3091 3093 3094 3096 3097 3096 3093 3091 3093 3095 3096 3097 3099 3100 3100 3100 3100 3100 3100 3101 3103 3105 3107 3109 3110 3112 3113 3114 3116 3118 3120 3121 3122 3123 3123 3124 3124 3122 3123 3124 3122 3123 3124 3123 3124 3125 3126 3127 3128 3130 3130 3130 3132 3134 3134 3133 3132 3131 3131 3134 3136 3133 3130 3129 3129 3129 3132 3135 3137 3139 3141 3144 3145 3147 3149 3150 3151 3152
3078 3078 3078 3079 3080 3081 3083 3085 3086 3088 3090 3092 3094 3094 3093 3091 3090 3091 3094 3095 3097 3098 3098 3097 3097 3098 3099 3099 3100 3099 3100 3102 3105 3107 3109 3110 3111 3112 3114 3115 3117 3119 3120 3121 3121 3122 3123 3120 3119 3120 3120 3120 3121 3121 3123 3124 3124 3125 3127 3128 3127 3126 3129 3130 3129 3129 3128 3128 3130 3132 3131 3129 3128 3128 3127 3128 3131 3133 3136 3139 3141 3143 3145 3146 3148 3149 3150 3151
3078 3078 3078 3079 3080 3081 3083 3084 3086 3088 3090 3091 3092 3091 3090 3089 3090 3092 3094 3095 3097 3097 3096 3094 3094 3096 3098 3098 3098 3099 3099 3101 3104 3105 3107 3108 3109 3110 3112 3113 3114 3116 3117 3118 3118 3119 3120 3117 3116 3119 3119 3118 3119 3120 3122 3123 3122 3124 3125 3125 3124 3125 3127 3127 3127 3127 3127 3128 3128 3128 3127 3126 3127 3126 3126 3127 3128 3131 3135 3137 3140 3142 3144 3145 3147 3148 3149 3150
3078 3078 3078 3079 3080 3082 3083 3085 3086 3088 3089 3090 3090 3089 3089 3090 3091 3092 3094 3095 3096 3096 3096 3094 3094 3096 3097 3097 3097 3098 3099 3100 3102 3104 3105 3107 3108 3108 3109 3111 3112 3113 3114 3116 3116 3117 3117 3114 3113 3117 3117 3116 3117 3120 3122 3121 3121 3122 3122 3122 3123 3125 3127 3127 3128 3127 3127 3128 3127 3125 3125 3126 3125 3124 3124 3125 3126 3129 3132 3135 3138 3141 3143 3144 3146 3147 3148 3149
3079 3078 3079 3079 3081 3082 3084 3085 3086 3087 3089 3089 3088 3089 3089 3089 3090 3093 3094 3094 3095 3095 3095 3095 3095 3096 3097 3098 3097 3098 3099 3098 3100 3102 3102 3104 3105 3105 3107 3108 3109 3111 3112 3114 3115 3115 3116 3114 3111 3113 3115 3114 3116 3119 3120 3120 3121 3120 3120 3122 3124 3125 3126 3127 3127 3126 3126 3127 3126 3124 3124 3124 3124 3123 3122 3124 3125 3127 3131 3134 3136 3139 3141 3142 3144 3146 3147 3148
3079 3079 3079 3080 3082 3083 3084 3085 3086 3087 3088 3088 3088 3089 3089 3089 3090 3093 3094 3094 3095 3095 3094 3094 3095 3095 3096 3097 3097 3097 3098 3097 3098 3099 3099 3101 3101 3101 3104 3105 3106 3108 3110 3112 3112 3113 3115 3114 3110 3110 3113 3112 3114 3117 3118 3118 3120 3119 3119 3121 3123 3124 3124 3124 3124 3123 3122 3123 3124 3125 3124 3122 3122 3122 3121 3122 3124 3126 3129 3132 3134 3137 3140 3141 3142 3144 3146 3147
3080 3080 3080 3081 3082 3084 3085 3086 3086 3087 3087 3088 3088 3089 3089 3090 3091 3092 3094 3094 3095 3095 3093 3093 3094 3094 3094 3095 3096 3097 3097 3097 3098 3097 3097 3098 3099 3099 3101 3103 3104 3105 3108 3109 3110 3110 3112 3113 3110 3108 3111 3111 3112 3113 3114 3116 3118 3118 3117 3118 3121 3122 3122 3122 3121 3120 3119 3119 3121 3123 3122 3120 3120 3121 3120 3121 3122 3125 3127 3130 3134 3137 3139 3140 3141 3142 3144 3145
3081 3081 3081 3082 3083 3085 3086 3086 3087 3087 3087 3088 3088 3089 3090 3090 3090 3091 3093 3093 3094 3094 3093 3092 3093 3094 3093 3093 3094 3095 3096 3096 3096 3096 3096 3097 3097 3097 3099 3100 3101 3103 3106 3107 3107 3108 3109 3110 3109 3107 3109 3111 3111 3111 3112 3113 3115 3116 3116 3117 3119 3120 3120 3121 3120 3118 3117 3116 3117 3119 3119 3119 3119 3118 3119 3120 3122 3125 3127 3131 3134 3137 3138 3139 3140 3141 3143 3144
3082 3082 3082 3082 3083 3085 3085 3086 3087 3087 3087 3088 3088 3089 3089 3089 3088 3089 3091 3092 3092 3092 3092 3093 3092 3092 3092 3092 3093 3093 3094 3094 3094 3094 3094 3095 3094 3095 3096 3097 3098 3100 3103 3104 3104 3106 3107 3108 3108 3106 3107 3109 3111 3111 3112 3112 3113 3114 3115 3117 3118 3118 3119 3120 3119 3117 3116 3115 3115 3116 3118 3119 3118 3117 3118 3121 3123 3126 3128 3131 3133 3135 3136 3137 3139 3140 3142 3143
3083 3083 3083 3083 3083 3084 3085 3086 3086 3086 3086 3087 3087 3087 3088 3088 3087 3088 3089 3090 3090 3089 3090 3092 3091 3090 3090 3091 3091 3092 3093 3093 3092 3092 3093 3093 3093 3094 3095 3096 3096 3098 3101 3101 3101 3104 3105 3106 3106 3106 3106 3107 3108 3110 3110 3111 3113 3113 3113 3115 3116 3116 3117 3117 3117 3117 3116 3115 3114 3116 3118 3119 3118 3117 3119 3121 3123 3125 3127 3129 3131 3133 3135 3137 3138 3140 3141 3143
3083 3083 3083 3083 3083 3084 3085 3086 3086 3086 3086 3086 3086 3086 3086 3086 3086 3088 3089 3089 3089 3088 3088 3090 3090 3089 3089 3089 3090 3091 3092 3092 3091 3091 3092 3092 3093 3094 3095 3095 3095 3096 3098 3098 3099 3101 3103 3103 3103 3104 3105 3106 3106 3107 3107 3108 3111 3110 3110 3112 3113 3114 3115 3115 3116 3117 3116 3114 3114 3115 3118 3119 3118 3119 3119 3120 3122 3124 3126 3128 3130 3132 3133 3135 3137 3138 3140 3142
3083 3083 3083 3083 3083 3084 3085 3085 3085 3086 3086 3086 3085 3085 3085 3086 3086 3088 3088 3089 3089 3088 3087 3088 3088 3088 3088 3088 3089 3089 3091 3092 3090 3089 3090 3090 3091 3092 3092 3092 3093 3094 3095 3096 3097 3099 3100 3101 3101 3101 3102 3104 3104 3105 3104 3106 3108 3109 3109 3110 3110 3111 3112 3113 3115 3115 3114 3113 3113 3113 3115 3117 3119 3120 3120 3120 3121 3123 3126 3128 3129 3131 3132 3133 3135 3137 3139 3141
3083 3083 3082 3082 3083 3083 3083 3084 3085 3085 3085 3086 3084 3084 3084 3085 3085 3087 3088 3088 3087 3088 3087 3087 3088 3088 3088 3088 3088 3088 3089 3090 3089 3089 3089 3088 3089 3089 3089 3089 3090 3091 3093 3094 3096 3097 3097 3098 3099 3099 3099 3100 3101 3103 3104 3106 3107 3107 3107 3108 3108 3108 3110 3111 3113 3113 3113 3112 3112 3111 3113 3116 3118 3119 3120 3121 3122 3123 3125 3127 3128 3129 3130 3132 3134 3136 3138 3140
3083 3083 3082 3082 3082 3082 3083 3083 3083 3083 3084 3085 3084 3083 3083 3083 3083 3085 3086 3087 3087 3088 3088 3087 3087 3088 3087 3088 3088 3087 3087 3087 3087 3088 3087 3087 3087 3087 3087 3087 3087 3088 3090 3092 3093 3095 3095 3096 3098 3099 3099 3099 3100 3102 3105 3106 3108 3108 3107 3107 3106 3106 3108 3109 3110 3110 3111 3112 3111 3111 3112 3114 3116 3118 3119 3120 3121 3122 3123 3124 3125 3126 3128 3130 3132 3134 3136 3138
3082 3082 3082 3083 3082 3082 3083 3083 3083 3083 3084 3085 3084 3083 3083 3082 3082 3083 3084 3084 3085 3086 3087 3087 3087 3087 3087 3088 3088 3087 3086 3085 3085 3085 3086 3085 3084 3084 3085 3086 3087 3087 3088 3089 3091 3093 3094 3095 3097 3098 3098 3098 3099 3101 3103 3104 3107 3108 3107 3106 3105 3105 3106 3106 3107 3108 3109 3110 3110 3110 3110 3112 3113 3114 3115 3116 3118 3119 3120 3121 3123 3124 3126 3127 3129 3131 3133 3135
3081 3081 3081 3082 3082 3082 3082 3083 3083 3083 3083 3084 3084 3083 3083 3082 3082 3083 3083 3083 3082 3083 3085 3085 3086 3086 3086 3086 3086 3086 3085 3084 3083 3083 3084 3083 3083 3084 3085 3086 3087 3087 3087 3088 3089 3090 3091 3092 3094 3096 3096 3096 3097 3098 3101 3102 3103 3105 3105 3104 3104 3104 3104 3104 3104 3105 3107 3107 3108 3108 3109 3109 3111 3112 3112 3113 3115 3117 3118 3120 3121 3123 3124 3125 3127 3128 3130 3132
3079 3079 3080 3080 3080 3081 3082 3082 3082 3082 3083 3083 3082 3081 3081 3081 3081 3081 3081 3082 3081 3081 3083 3083 3083 3083 3083 3084 3084 3084 3083 3083 3083 3082 3082 3082 3083 3084 3085 3086 3086 3086 3088 3088 3088 3088 3089 3091 3092 3094 3095 3095 3096 3097 3099 3100 3101 3101 3101 3102 3103 3103 3103 3102 3101 3102 3104 3105 3106 3107 3107 3108 3110 3112 3112 3113 3115 3116 3117 3118 3120 3122 3123 3124 3126 3127 3129 3130
3078 3078 3078 3078 3079 3080 3080 3080 3080 3080 3081 3080 3078 3078 3078 3079 3079 3078 3079 3081 3082 3082 3082 3081 3080 3081 3082 3082 3082 3082 3082 3082 3082 3082 3082 3082 3083 3084 3086 3087 3087 3087 3088 3088 3088 3088 3089 3090 3091 3091 3092 3093 3095 3095 3097 3098 3098 3098 3099 3100 3101 3101 3101 3100 3099 3100 3101 3102 3103 3104 3104 3106 3108 3109 3110 3112 3114 3116 3117 3118 3120 3121 3123 3124 3126 3127 3128 3129
3076 3076 3076 3076 3076 3077 3078 3078 3079 3078 3078 3077 3077 3077 3077 3077 3078 3078 3078 3079 3080 3080 3080 3079 3078 3079 3080 3081 3080 3080 3080 3080 3080 3081 3081 3082 3083 3084 3086 3087 3088 3088 3088 3089 3088 3089 3089 3089 3090 3090 3090 3091 3093 3094 3095 3096 3096 3096 3097 3098 3098 3097 3097 3097 3097 3098 3098 3100 3101 3101 3102 3104 3105 3106 3108 3111 3114 3115 3117 3118 3119 3120 3122 3124 3126 3127 3128 3129